Weather History for Point Mugu, CA

Change the Weather History Date:

Friday, July 12, 2013

  Actual Average Record
Temperature  
Mean Temperature 66 °F -  
Max Temperature 69 °F 69 °F 78 °F (1999)
Min Temperature 62 °F 56 °F 50 °F (2001)
Growing Degree Days 16 (Base 50)    
Moisture  
Dew Point 62 °F    
Average Humidity 86    
Maximum Humidity 94    
Minimum Humidity 77    
Precipitation  
Precipitation 0.00 in - - ()
Sea Level Pressure  
Sea Level Pressure 29.92 in    
Wind  
Wind Speed 3 mph (West)    
Max Wind Speed 21 mph    
Max Gust Speed 63 mph    
Visibility 3 miles    
Events      
Averages and records for this station are not official NWS values.
T = Trace of Precipitation, MM = Missing Value Source: NWS Daily Summary

Daily Weather History Graph

Daily Weather History Graph

Search for Another Location

Airport:

Trip Planner

Search our weather history database for the weather conditions in past years. The results will help you decide how hot, cold, wet, or windy it might be!

Date:

Astronomy

Jul. 12, 2013 Rise Set
Actual Time 5:54 AM PDT 8:09 PM PDT
Civil Twilight 5:25 AM PDT 8:38 PM PDT
Nautical Twilight 4:50 AM PDT 9:13 PM PDT
Astronomical Twilight 4:12 AM PDT 9:51 PM PDT
Moon 10:02 AM PDT (7/12) 10:37 PM PDT (7/12)
Length of Visible Light 15h 12m
Length of Day
14h 15m
Waxing Crescent, 18% of the Moon is Illuminated
Jul 12
Waxing Crescent
Jul 15
First Quarter
Jul 22
Full
Jul 29
Last Quarter
Aug 6
New

Hourly Weather History & Observations

Time (PDT) Temp. Dew Point Humidity Pressure Visibility Wind Dir Wind Speed Gust Speed Precip Events Conditions
12:54 AM - - N/A% - - Calm Calm - N/A   Clear
1:50 AM - - N/A% - - Calm Calm - N/A   Scattered Clouds
1:54 AM - - N/A% - - Calm Calm - N/A   Scattered Clouds
2:01 AM - - N/A% - - Calm Calm - N/A   Mostly Cloudy
2:43 AM - - N/A% - - Calm Calm - N/A   Overcast
2:54 AM - - N/A% - - NNW 3.5 mph - N/A   Overcast
3:54 AM - - N/A% - - Calm Calm - N/A   Overcast
4:54 AM - - N/A% - - Calm Calm - N/A   Overcast
5:54 AM 65.1 °F 62.1 °F 90% 29.91 in 0.8 mi Calm Calm - N/A   Overcast
6:00 AM 64.4 °F 62.6 °F 94% 29.92 in 0.8 mi Calm Calm - N/A   Overcast
6:46 AM 64.4 °F 60.8 °F 88% 29.92 in 1.0 mi Calm Calm - N/A   Overcast
6:54 AM 64.0 °F 61.2 °F 90% 29.92 in 1.0 mi Calm Calm - N/A   Overcast
7:54 AM 64.6 °F 62.1 °F 92% 29.94 in 0.8 mi Calm Calm - N/A   Overcast
8:41 AM 66.2 °F 62.6 °F 88% 29.93 in 1.2 mi West 3.5 mph - N/A   Overcast
8:54 AM 65.3 °F 62.1 °F 89% 29.94 in 1.2 mi Variable 3.5 mph - N/A   Overcast
9:26 AM 66.2 °F 62.6 °F 88% 29.93 in 2.5 mi Calm Calm - N/A   Overcast
9:54 AM 66.9 °F 63.0 °F 87% 29.94 in 2.5 mi WSW 4.6 mph - N/A   Overcast
10:54 AM 67.5 °F 63.0 °F 85% 29.94 in 3.0 mi SW 6.9 mph - N/A   Overcast
11:31 AM 68.0 °F 62.6 °F 83% 29.93 in 5.0 mi Variable 5.8 mph - N/A   Haze
11:54 AM 67.6 °F 62.1 °F 82% 29.94 in 5.0 mi West 9.2 mph - N/A   Haze
12:43 PM 68.0 °F 62.6 °F 83% 29.94 in 5.0 mi West 12.7 mph - N/A   Haze
12:54 PM 68.0 °F 62.1 °F 81% 29.94 in 5.0 mi West 12.7 mph - N/A   Haze
1:54 PM 69.1 °F 62.1 °F 78% 29.92 in 5.0 mi WSW 20.7 mph 63.3 mph N/A   Haze
2:54 PM 68.4 °F 61.0 °F 77% 29.91 in 6.0 mi West 12.7 mph - N/A   Haze
3:13 PM 68.0 °F 60.8 °F 78% 29.91 in 6.0 mi West 11.5 mph - N/A   Haze
3:54 PM 66.6 °F 61.2 °F 83% 29.91 in 6.0 mi West 10.4 mph - N/A   Haze
4:54 PM 65.5 °F 61.0 °F 85% 29.89 in 6.0 mi West 10.4 mph - N/A   Haze
5:39 PM 64.4 °F 60.8 °F 88% 29.88 in 3.0 mi WNW 10.4 mph - N/A   Overcast
5:54 PM 64.9 °F 61.5 °F 89% 29.88 in 3.0 mi West 10.4 mph - N/A   Overcast
6:54 PM 62.8 °F 60.1 °F 91% 29.88 in 3.0 mi West 9.2 mph - N/A   Overcast
7:54 PM 63.9 °F 60.3 °F 88% 29.88 in 3.0 mi NW 4.6 mph - N/A   Overcast
8:54 PM 63.9 °F 59.9 °F 87% 29.88 in 3.0 mi NNW 4.6 mph - N/A   Mostly Cloudy
9:54 PM 64.0 °F 60.1 °F 87% 29.91 in 3.0 mi North 3.5 mph - N/A   Mostly Cloudy
10:54 PM 63.5 °F 60.1 °F 89% 29.91 in 3.0 mi Calm Calm - N/A   Overcast
11:54 PM - - N/A% - - West 3.5 mph - N/A   Overcast